Orbital Elements at Epoch 2459000.5 (2020-May-31.0) TDB
Reference: JPL 23 (heliocentric ecliptic J2000)
Element | Value | Uncertainty (1-sigma) | Units |
e | .2364270223682415 | 1.2541e-07 | |
a | 2.559096012564119 | 2.2102e-08 | au |
q | 1.954056562359144 | 3.3016e-07 | au |
i | 13.23204296502561 | 8.0955e-06 | deg |
node | 222.8911458029242 | 1.6997e-05 | deg |
peri | 192.4280111830219 | 2.259e-05 | deg |
M | 221.6267807866658 | 1.122e-05 | deg |
tp | 2459575.248492817501 (2021-Dec-26.74849282) | 5.1401e-05 | TDB |
period | 1495.299875153599 4.09 | 1.9372e-05 5.304e-08 | d yr |
n | .2407543837740375 | 3.119e-09 | deg/d |
Q | 3.164135462769093 | 2.7328e-08 | au |
|
| | Orbit Determination Parameters
Additional Information
|